Torna al catalogo

STARLINK-3087

AttivoComunicazioniVLEO
NORAD 49175·PAYLOAD·🇺🇸 United States

Lanciato Sep 14, 2021 da Vandenberg Space Force Base

Loading…

Prossimi Passaggi (prossime 24 ore)

TLE

AggiornatoSource: CelesTrak SupGP

Epoca: Sep 14, 2026, 21:39 UTC

1 49175C 21082AX  26257.90256944 -.00035414  00000+0 -30305-2 0  2578
2 49175  70.0012 158.9045 0002752 266.7493  74.3134 14.97539311    19

Traccia STARLINK-3087 in tempo reale con AllMySat

Download on the App Store